カタログに戻る

METEOR 2-11 DEB

運用中PO
NORAD 42455·DEBRIS·🇷🇺 Russia

打ち上げ Jul 5, 1984 から Plesetsk Cosmodrome

Loading…

次のパス (今後24時間)

TLE

最新Source: Space-Track

元期: Sep 11, 2026, 10:52 UTC

1 42455U 84072R   26254.45333134  .00000761  00000-0  53898-3 0  9996
2 42455  82.5254 306.9136 0009276 121.3925 238.8151 13.96569540572003

AllMySatでMETEOR 2-11 DEBをリアルタイム追跡

Download on the App Store